owner,sensor,date,latitude,longitude,vertical_datum,direction_of_sea_water_velocity,sea_water_speed,upward_sea_water_velocity,qcFlag 
TABS,ioos:station:wmo:42045:1,2006-08-01T00:00:00Z,26.2168,-96.4998,2.0,75.54376364,17.8656542,-99999.0,'11111222,11111222,99999999' 
TABS,ioos:station:wmo:42045:1,2006-08-01T00:30:00Z,26.2168,-96.4998,2.0,66.21347775,21.49599498,-99999.0,'11111222,11111222,99999999' 
TABS,ioos:station:wmo:42045:1,2006-08-01T01:00:00Z,26.2168,-96.4998,2.0,71.59251284,19.82432092,-99999.0,'11111222,11111222,99999999' 
TABS,ioos:station:wmo:42045:1,2006-08-01T01:30:00Z,26.2168,-96.4998,2.0,86.49132201,15.84970978,-99999.0,'11111222,11111222,99999999' 
TABS,ioos:station:wmo:42045:1,2006-08-01T02:00:00Z,26.2168,-96.4998,2.0,86.26650956,11.82509619,-99999.0,'11111222,11111222,99999999' 
TABS,ioos:station:wmo:42045:1,2006-08-01T02:30:00Z,26.2168,-96.4998,2.0,88.65266226,12.33340991,-99999.0,'11111222,11111222,99999999' 
TABS,ioos:station:wmo:42045:1,2006-08-01T03:00:00Z,26.2168,-96.4998,2.0,103.0167717,9.678703426,-99999.0,'11133222,11111222,99999999' 
TABS,ioos:station:wmo:42045:1,2006-08-01T03:30:00Z,26.2168,-96.4998,2.0,108.5698775,5.369562366,-99999.0,'11133222,11111222,99999999' 
TABS,ioos:station:wmo:42045:1,2006-08-01T04:00:00Z,26.2168,-96.4998,2.0,96.98745896,3.616863282,-99999.0,'11133222,11111222,99999999' 
TABS,ioos:station:wmo:42045:1,2006-08-01T04:30:00Z,26.2168,-96.4998,2.0,96.27106279,0.915478017,-99999.0,'11133222,11111222,99999999' 
TABS,ioos:station:wmo:42045:1,2006-08-01T05:00:00Z,26.2168,-96.4998,2.0,283.6009316,1.275774275,-99999.0,'11133222,11111222,99999999' 
TABS,ioos:station:wmo:42045:1,2006-08-01T05:30:00Z,26.2168,-96.4998,2.0,271.6851013,1.700735135,-99999.0,'11133222,11111222,99999999' 
TABS,ioos:station:wmo:42045:1,2006-08-01T06:00:00Z,26.2168,-96.4998,2.0,349.1438225,0.743303437,-99999.0,'11133222,11111222,99999999' 
TABS,ioos:station:wmo:42045:1,2006-08-01T06:30:00Z,26.2168,-96.4998,2.0,324.1318896,5.034769111,-99999.0,'11133222,11111222,99999999' 
TABS,ioos:station:wmo:42045:1,2006-08-01T07:00:00Z,26.2168,-96.4998,2.0,313.9552374,4.264563284,-99999.0,'11133222,11111222,99999999' 
TABS,ioos:station:wmo:42045:1,2006-08-01T07:30:00Z,26.2168,-96.4998,2.0,326.0287358,6.209943639,-99999.0,'11133222,11111222,99999999' 
TABS,ioos:station:wmo:42045:1,2006-08-01T08:00:00Z,26.2168,-96.4998,2.0,325.9455185,8.714516625,-99999.0,'11133222,11111222,99999999' 
TABS,ioos:station:wmo:42045:1,2006-08-01T08:30:00Z,26.2168,-96.4998,2.0,331.2661969,8.507625991,-99999.0,'11133222,11111222,99999999' 
TABS,ioos:station:wmo:42045:1,2006-08-01T09:00:00Z,26.2168,-96.4998,2.0,334.2353291,12.16986853,-99999.0,'11111222,11111222,99999999' 
TABS,ioos:station:wmo:42045:1,2006-08-01T09:30:00Z,26.2168,-96.4998,2.0,336.2226957,11.95474801,-99999.0,'11111222,11111222,99999999' 
TABS,ioos:station:wmo:42045:1,2006-08-01T10:00:00Z,26.2168,-96.4998,2.0,340.8672288,17.90930764,-99999.0,'11111222,11111222,99999999' 
TABS,ioos:station:wmo:42045:1,2006-08-01T10:30:00Z,26.2168,-96.4998,2.0,343.7027601,19.67040416,-99999.0,'11111222,11111222,99999999' 
TABS,ioos:station:wmo:42045:1,2006-08-01T11:00:00Z,26.2168,-96.4998,2.0,344.9541671,18.99106369,-99999.0,'11111222,11111222,99999999' 
TABS,ioos:station:wmo:42045:1,2006-08-01T11:30:00Z,26.2168,-96.4998,2.0,356.1530299,20.7166841,-99999.0,'11111222,11111222,99999999' 
TABS,ioos:station:wmo:42045:1,2006-08-01T12:00:00Z,26.2168,-96.4998,2.0,3.175807696,22.56464934,-99999.0,'11111222,11111222,99999999' 
TABS,ioos:station:wmo:42045:1,2006-08-01T12:30:00Z,26.2168,-96.4998,2.0,1.206744749,24.69547529,-99999.0,'11111222,11111222,99999999' 
TABS,ioos:station:wmo:42045:1,2006-08-01T13:00:00Z,26.2168,-96.4998,2.0,10.35149617,24.26492324,-99999.0,'11111222,11111222,99999999' 
TABS,ioos:station:wmo:42045:1,2006-08-01T13:30:00Z,26.2168,-96.4998,2.0,14.00228608,24.42576713,-99999.0,'11111222,11111222,99999999' 
TABS,ioos:station:wmo:42045:1,2006-08-01T14:00:00Z,26.2168,-96.4998,2.0,18.02887378,24.97629676,-99999.0,'11111222,11111222,99999999' 
TABS,ioos:station:wmo:42045:1,2006-08-01T15:00:00Z,26.2168,-96.4998,2.0,23.02564862,27.3814554,-99999.0,'11111222,11111222,99999999' 
TABS,ioos:station:wmo:42045:1,2006-08-01T15:30:00Z,26.2168,-96.4998,2.0,23.65795531,25.39416665,-99999.0,'11111222,11111222,99999999' 
TABS,ioos:station:wmo:42045:1,2006-08-01T16:00:00Z,26.2168,-96.4998,2.0,28.93724939,28.41794152,-99999.0,'11111222,11111222,99999999' 
TABS,ioos:station:wmo:42045:1,2006-08-01T16:30:00Z,26.2168,-96.4998,2.0,34.06103963,27.42495214,-99999.0,'11111222,11111222,99999999' 
TABS,ioos:station:wmo:42045:1,2006-08-01T17:00:00Z,26.2168,-96.4998,2.0,33.16230586,27.09270751,-99999.0,'11111222,11111222,99999999' 
TABS,ioos:station:wmo:42045:1,2006-08-01T17:30:00Z,26.2168,-96.4998,2.0,39.05325608,24.56983516,-99999.0,'11111222,11111222,99999999' 
TABS,ioos:station:wmo:42045:1,2006-08-01T18:00:00Z,26.2168,-96.4998,2.0,43.83940305,25.482286,-99999.0,'11111222,11111222,99999999' 
TABS,ioos:station:wmo:42045:1,2006-08-01T18:30:00Z,26.2168,-96.4998,2.0,48.08789713,22.70988551,-99999.0,'11111222,11111222,99999999' 
TABS,ioos:station:wmo:42045:1,2006-08-01T19:00:00Z,26.2168,-96.4998,2.0,49.86842622,22.49644416,-99999.0,'11111222,11111222,99999999' 
TABS,ioos:station:wmo:42045:1,2006-08-01T19:30:00Z,26.2168,-96.4998,2.0,43.08713415,21.18258247,-99999.0,'11111222,11111222,99999999' 
TABS,ioos:station:wmo:42045:1,2006-08-01T20:00:00Z,26.2168,-96.4998,2.0,42.8442614,18.98511259,-99999.0,'11111222,11111222,99999999' 
TABS,ioos:station:wmo:42045:1,2006-08-01T21:00:00Z,26.2168,-96.4998,2.0,45.32432935,17.49410186,-99999.0,'11111222,11111222,99999999' 
TABS,ioos:station:wmo:42045:1,2006-08-01T21:30:00Z,26.2168,-96.4998,2.0,46.12832002,16.16052289,-99999.0,'11111222,11111222,99999999' 
TABS,ioos:station:wmo:42045:1,2006-08-01T22:00:00Z,26.2168,-96.4998,2.0,51.26055159,14.58976696,-99999.0,'11111222,11111222,99999999' 
TABS,ioos:station:wmo:42045:1,2006-08-01T22:30:00Z,26.2168,-96.4998,2.0,41.79534565,14.41924409,-99999.0,'11111222,11111222,99999999' 
TABS,ioos:station:wmo:42045:1,2006-08-01T23:00:00Z,26.2168,-96.4998,2.0,42.60136786,13.1778754,-99999.0,'11111222,11111222,99999999' 
TABS,ioos:station:wmo:42045:1,2006-08-01T23:30:00Z,26.2168,-96.4998,2.0,45.22304436,10.90366911,-99999.0,'11111222,11111222,99999999' 
TABS,ioos:station:wmo:42045:1,2006-08-02T00:00:00Z,26.2168,-96.4998,2.0,52.05063977,9.447676963,-99999.0,'11133222,11111222,99999999' 
TABS,ioos:station:wmo:42045:1,2006-08-02T00:30:00Z,26.2168,-96.4998,2.0,39.48638751,9.419819531,-99999.0,'11133222,11111222,99999999' 
TABS,ioos:station:wmo:42045:1,2006-08-02T01:00:00Z,26.2168,-96.4998,2.0,56.54999161,7.946150011,-99999.0,'11133222,11111222,99999999' 
TABS,ioos:station:wmo:42045:1,2006-08-02T01:30:00Z,26.2168,-96.4998,2.0,53.62224858,3.72613741,-99999.0,'11133222,11111222,99999999' 
TABS,ioos:station:wmo:42045:1,2006-08-02T02:00:00Z,26.2168,-96.4998,2.0,22.17273698,3.153173005,-99999.0,'11133222,11111222,99999999' 
TABS,ioos:station:wmo:42045:1,2006-08-02T02:30:00Z,26.2168,-96.4998,2.0,16.96631889,3.084234103,-99999.0,'11133222,11111222,99999999' 
TABS,ioos:station:wmo:42045:1,2006-08-02T03:00:00Z,26.2168,-96.4998,2.0,21.46510511,2.213526598,-99999.0,'11133222,11111222,99999999' 
TABS,ioos:station:wmo:42045:1,2006-08-02T03:30:00Z,26.2168,-96.4998,2.0,349.8546897,0.965090669,-99999.0,'11133222,11111222,99999999' 
TABS,ioos:station:wmo:42045:1,2006-08-02T04:00:00Z,26.2168,-96.4998,2.0,357.2953408,1.271416533,-99999.0,'11133222,11111222,99999999' 
TABS,ioos:station:wmo:42045:1,2006-08-02T04:30:00Z,26.2168,-96.4998,2.0,339.9135708,6.143695956,-99999.0,'11133222,11111222,99999999' 
TABS,ioos:station:wmo:42045:1,2006-08-02T05:00:00Z,26.2168,-96.4998,2.0,348.6403809,6.752281096,-99999.0,'11133222,11111222,99999999' 
TABS,ioos:station:wmo:42045:1,2006-08-02T05:30:00Z,26.2168,-96.4998,2.0,324.3818039,5.769376049,-99999.0,'11133222,11111222,99999999' 
TABS,ioos:station:wmo:42045:1,2006-08-02T06:00:00Z,26.2168,-96.4998,2.0,340.3380115,9.15373148,-99999.0,'11133222,11111222,99999999' 
TABS,ioos:station:wmo:42045:1,2006-08-02T06:30:00Z,26.2168,-96.4998,2.0,324.0800675,12.1876741,-99999.0,'11111222,11111222,99999999' 
TABS,ioos:station:wmo:42045:1,2006-08-02T07:00:00Z,26.2168,-96.4998,2.0,330.9319727,12.18478149,-99999.0,'11111222,11111222,99999999' 
TABS,ioos:station:wmo:42045:1,2006-08-02T07:30:00Z,26.2168,-96.4998,2.0,325.0119948,12.60879852,-99999.0,'11111222,11111222,99999999' 
TABS,ioos:station:wmo:42045:1,2006-08-02T08:00:00Z,26.2168,-96.4998,2.0,326.9202016,10.68135759,-99999.0,'11111222,11111222,99999999' 
TABS,ioos:station:wmo:42045:1,2006-08-02T08:30:00Z,26.2168,-96.4998,2.0,317.5999218,12.47205677,-99999.0,'11111222,11111222,99999999' 
TABS,ioos:station:wmo:42045:1,2006-08-02T09:00:00Z,26.2168,-96.4998,2.0,336.3874757,17.80036516,-99999.0,'11111222,11111222,99999999' 
TABS,ioos:station:wmo:42045:1,2006-08-02T09:30:00Z,26.2168,-96.4998,2.0,334.3928917,16.58946955,-99999.0,'11111222,11111222,99999999' 
TABS,ioos:station:wmo:42045:1,2006-08-02T10:00:00Z,26.2168,-96.4998,2.0,336.81788,18.56935648,-99999.0,'11111222,11111222,99999999' 
TABS,ioos:station:wmo:42045:1,2006-08-02T10:30:00Z,26.2168,-96.4998,2.0,341.2314073,20.07764179,-99999.0,'11111222,11111222,99999999' 
TABS,ioos:station:wmo:42045:1,2006-08-02T11:00:00Z,26.2168,-96.4998,2.0,343.8540141,15.28283024,-99999.0,'11111222,11111222,99999999' 
TABS,ioos:station:wmo:42045:1,2006-08-02T11:30:00Z,26.2168,-96.4998,2.0,343.2942491,16.24569174,-99999.0,'11111222,11111222,99999999' 
TABS,ioos:station:wmo:42045:1,2006-08-02T12:00:00Z,26.2168,-96.4998,2.0,347.0464648,22.0819587,-99999.0,'11111222,11111222,99999999' 
TABS,ioos:station:wmo:42045:1,2006-08-02T12:30:00Z,26.2168,-96.4998,2.0,352.4805599,23.22977615,-99999.0,'11111222,11111222,99999999' 
TABS,ioos:station:wmo:42045:1,2006-08-02T13:00:00Z,26.2168,-96.4998,2.0,357.5312394,22.98133373,-99999.0,'11111222,11111222,99999999' 
TABS,ioos:station:wmo:42045:1,2006-08-02T13:30:00Z,26.2168,-96.4998,2.0,357.3372159,23.24510271,-99999.0,'11111222,11111222,99999999' 
TABS,ioos:station:wmo:42045:1,2006-08-02T14:00:00Z,26.2168,-96.4998,2.0,359.0258037,22.93331638,-99999.0,'11111222,11144222,99999999' 
TABS,ioos:station:wmo:42045:1,2006-08-02T14:30:00Z,26.2168,-96.4998,2.0,4.315730234,21.661415,-99999.0,'11111222,11111222,99999999' 
TABS,ioos:station:wmo:42045:1,2006-08-02T15:00:00Z,26.2168,-96.4998,2.0,6.711464469,23.36007063,-99999.0,'11111222,11111222,99999999' 
TABS,ioos:station:wmo:42045:1,2006-08-02T15:30:00Z,26.2168,-96.4998,2.0,5.732881785,23.22615982,-99999.0,'11111222,11111222,99999999' 
TABS,ioos:station:wmo:42045:1,2006-08-02T16:00:00Z,26.2168,-96.4998,2.0,6.989445722,24.07893062,-99999.0,'11111222,11111222,99999999' 
TABS,ioos:station:wmo:42045:1,2006-08-02T16:30:00Z,26.2168,-96.4998,2.0,13.10221768,25.5860587,-99999.0,'11111222,11111222,99999999' 
TABS,ioos:station:wmo:42045:1,2006-08-02T17:00:00Z,26.2168,-96.4998,2.0,16.48321536,23.86058046,-99999.0,'11111222,11111222,99999999' 
TABS,ioos:station:wmo:42045:1,2006-08-02T17:30:00Z,26.2168,-96.4998,2.0,12.00869566,24.12800033,-99999.0,'11111222,11111222,99999999' 
TABS,ioos:station:wmo:42045:1,2006-08-02T18:00:00Z,26.2168,-96.4998,2.0,9.184695839,23.05558501,-99999.0,'11111222,11111222,99999999' 
TABS,ioos:station:wmo:42045:1,2006-08-02T18:30:00Z,26.2168,-96.4998,2.0,15.04109731,23.92981822,-99999.0,'11111222,11111222,99999999' 
TABS,ioos:station:wmo:42045:1,2006-08-02T19:00:00Z,26.2168,-96.4998,2.0,16.68989256,23.0510477,-99999.0,'11111222,11111222,99999999' 
TABS,ioos:station:wmo:42045:1,2006-08-02T19:30:00Z,26.2168,-96.4998,2.0,16.66332314,22.80776403,-99999.0,'11111222,11111222,99999999' 
TABS,ioos:station:wmo:42045:1,2006-08-02T20:00:00Z,26.2168,-96.4998,2.0,20.21562084,21.06777872,-99999.0,'11111222,11111222,99999999' 
TABS,ioos:station:wmo:42045:1,2006-08-02T20:30:00Z,26.2168,-96.4998,2.0,18.1630413,19.31224741,-99999.0,'11111222,11111222,99999999' 
TABS,ioos:station:wmo:42045:1,2006-08-02T21:00:00Z,26.2168,-96.4998,2.0,16.73892987,15.27733288,-99999.0,'11111222,11111222,99999999' 
TABS,ioos:station:wmo:42045:1,2006-08-02T21:30:00Z,26.2168,-96.4998,2.0,5.946387525,17.66504458,-99999.0,'11111222,11111222,99999999' 
TABS,ioos:station:wmo:42045:1,2006-08-02T22:00:00Z,26.2168,-96.4998,2.0,0.825090767,15.28158369,-99999.0,'11111222,11111222,99999999' 
TABS,ioos:station:wmo:42045:1,2006-08-02T22:30:00Z,26.2168,-96.4998,2.0,356.6091373,16.39871336,-99999.0,'11111222,11111222,99999999' 
TABS,ioos:station:wmo:42045:1,2006-08-02T23:00:00Z,26.2168,-96.4998,2.0,350.6834191,16.1834885,-99999.0,'11111222,11111222,99999999' 
TABS,ioos:station:wmo:42045:1,2006-08-02T23:30:00Z,26.2168,-96.4998,2.0,347.6474492,16.59417368,-99999.0,'11111222,11111222,99999999' 
TABS,ioos:station:wmo:42045:1,2006-08-03T00:00:00Z,26.2168,-96.4998,2.0,341.3965404,17.17756677,-99999.0,'11111222,11111222,99999999' 
TABS,ioos:station:wmo:42045:1,2006-08-03T00:30:00Z,26.2168,-96.4998,2.0,337.7652716,17.17731062,-99999.0,'11111222,11111222,99999999' 
TABS,ioos:station:wmo:42045:1,2006-08-03T01:00:00Z,26.2168,-96.4998,2.0,329.6250074,17.69958757,-99999.0,'11111222,11111222,99999999' 
TABS,ioos:station:wmo:42045:1,2006-08-03T01:30:00Z,26.2168,-96.4998,2.0,330.9028311,15.58719988,-99999.0,'11111222,11111222,99999999' 
TABS,ioos:station:wmo:42045:1,2006-08-03T02:00:00Z,26.2168,-96.4998,2.0,335.8047239,12.98029275,-99999.0,'11111222,11111222,99999999' 
TABS,ioos:station:wmo:42045:1,2006-08-03T02:30:00Z,26.2168,-96.4998,2.0,326.1661856,15.44567577,-99999.0,'11111222,11111222,99999999' 
TABS,ioos:station:wmo:42045:1,2006-08-03T03:00:00Z,26.2168,-96.4998,2.0,325.9992451,16.86313435,-99999.0,'11111222,11111222,99999999' 
TABS,ioos:station:wmo:42045:1,2006-08-03T03:30:00Z,26.2168,-96.4998,2.0,321.0572537,15.48013243,-99999.0,'11111222,11111222,99999999' 
TABS,ioos:station:wmo:42045:1,2006-08-03T04:00:00Z,26.2168,-96.4998,2.0,328.4971408,14.02749087,-99999.0,'11111222,11111222,99999999' 
TABS,ioos:station:wmo:42045:1,2006-08-03T04:30:00Z,26.2168,-96.4998,2.0,319.3216075,14.45192029,-99999.0,'11111222,11111222,99999999' 
TABS,ioos:station:wmo:42045:1,2006-08-03T05:00:00Z,26.2168,-96.4998,2.0,312.9296339,14.87309652,-99999.0,'11111222,11111222,99999999' 
TABS,ioos:station:wmo:42045:1,2006-08-03T05:30:00Z,26.2168,-96.4998,2.0,313.8848872,18.16194373,-99999.0,'11111222,11111222,99999999' 
TABS,ioos:station:wmo:42045:1,2006-08-03T06:00:00Z,26.2168,-96.4998,2.0,313.1823644,18.50015405,-99999.0,'11111222,11111222,99999999' 
TABS,ioos:station:wmo:42045:1,2006-08-03T06:30:00Z,26.2168,-96.4998,2.0,317.4818807,22.04705196,-99999.0,'11111222,11111222,99999999' 
TABS,ioos:station:wmo:42045:1,2006-08-03T07:00:00Z,26.2168,-96.4998,2.0,319.4893111,23.39923289,-99999.0,'11111222,11111222,99999999' 
TABS,ioos:station:wmo:42045:1,2006-08-03T07:30:00Z,26.2168,-96.4998,2.0,319.5812686,25.23239386,-99999.0,'11111222,11111222,99999999' 
TABS,ioos:station:wmo:42045:1,2006-08-03T08:00:00Z,26.2168,-96.4998,2.0,325.6111484,25.45986057,-99999.0,'11111222,11111222,99999999' 
TABS,ioos:station:wmo:42045:1,2006-08-03T08:30:00Z,26.2168,-96.4998,2.0,323.8089173,24.65772901,-99999.0,'11111222,11111222,99999999' 
TABS,ioos:station:wmo:42045:1,2006-08-03T09:00:00Z,26.2168,-96.4998,2.0,328.8514952,26.02161601,-99999.0,'11111222,11111222,99999999' 
TABS,ioos:station:wmo:42045:1,2006-08-03T09:30:00Z,26.2168,-96.4998,2.0,331.2052831,27.00979452,-99999.0,'11111222,11111222,99999999' 
TABS,ioos:station:wmo:42045:1,2006-08-03T10:00:00Z,26.2168,-96.4998,2.0,333.1097842,28.34485491,-99999.0,'11111222,11111222,99999999' 
TABS,ioos:station:wmo:42045:1,2006-08-03T10:30:00Z,26.2168,-96.4998,2.0,333.1851916,26.64523972,-99999.0,'11111222,11111222,99999999' 
TABS,ioos:station:wmo:42045:1,2006-08-03T11:00:00Z,26.2168,-96.4998,2.0,336.0895995,26.94222151,-99999.0,'11111222,11111222,99999999' 
TABS,ioos:station:wmo:42045:1,2006-08-03T11:30:00Z,26.2168,-96.4998,2.0,335.9354857,23.8860566,-99999.0,'11111222,11111222,99999999' 
TABS,ioos:station:wmo:42045:1,2006-08-03T12:00:00Z,26.2168,-96.4998,2.0,339.5677823,29.84790277,-99999.0,'11111222,11111222,99999999' 
TABS,ioos:station:wmo:42045:1,2006-08-03T12:30:00Z,26.2168,-96.4998,2.0,345.3981819,29.47194089,-99999.0,'11111222,11111222,99999999' 
TABS,ioos:station:wmo:42045:1,2006-08-03T13:00:00Z,26.2168,-96.4998,2.0,348.7059121,28.79769435,-99999.0,'11111222,11111222,99999999' 
TABS,ioos:station:wmo:42045:1,2006-08-03T13:30:00Z,26.2168,-96.4998,2.0,350.3823871,25.43754902,-99999.0,'11111222,11111222,99999999' 
TABS,ioos:station:wmo:42045:1,2006-08-03T14:00:00Z,26.2168,-96.4998,2.0,355.9411736,24.58165983,-99999.0,'11111222,11111222,99999999' 
TABS,ioos:station:wmo:42045:1,2006-08-03T14:30:00Z,26.2168,-96.4998,2.0,352.5259767,24.21575107,-99999.0,'11111222,11111222,99999999' 
TABS,ioos:station:wmo:42045:1,2006-08-03T15:00:00Z,26.2168,-96.4998,2.0,0.992469738,21.94329055,-99999.0,'11111222,11111222,99999999' 
TABS,ioos:station:wmo:42045:1,2006-08-03T15:30:00Z,26.2168,-96.4998,2.0,1.038358413,20.97344273,-99999.0,'11111222,11111222,99999999' 
TABS,ioos:station:wmo:42045:1,2006-08-03T16:00:00Z,26.2168,-96.4998,2.0,6.20241652,20.17810695,-99999.0,'11111222,11111222,99999999' 
TABS,ioos:station:wmo:42045:1,2006-08-03T16:30:00Z,26.2168,-96.4998,2.0,6.792122199,18.34876835,-99999.0,'11111222,11111222,99999999' 
TABS,ioos:station:wmo:42045:1,2006-08-03T17:00:00Z,26.2168,-96.4998,2.0,358.9065466,17.81324507,-99999.0,'11111222,11111222,99999999' 
TABS,ioos:station:wmo:42045:1,2006-08-03T17:30:00Z,26.2168,-96.4998,2.0,352.9382621,15.77970849,-99999.0,'11111222,11111222,99999999' 
TABS,ioos:station:wmo:42045:1,2006-08-03T18:00:00Z,26.2168,-96.4998,2.0,2.119633268,12.70869387,-99999.0,'11111222,11111222,99999999' 
TABS,ioos:station:wmo:42045:1,2006-08-03T18:30:00Z,26.2168,-96.4998,2.0,359.5418551,13.75043999,-99999.0,'11111222,11144222,99999999' 
TABS,ioos:station:wmo:42045:1,2006-08-03T19:00:00Z,26.2168,-96.4998,2.0,348.8104929,13.08881966,-99999.0,'11111222,11111222,99999999' 
TABS,ioos:station:wmo:42045:1,2006-08-03T19:30:00Z,26.2168,-96.4998,2.0,358.2998213,11.79519394,-99999.0,'11111222,11111222,99999999' 
TABS,ioos:station:wmo:42045:1,2006-08-03T20:00:00Z,26.2168,-96.4998,2.0,341.5514216,13.05072029,-99999.0,'11111222,11111222,99999999' 
TABS,ioos:station:wmo:42045:1,2006-08-03T20:30:00Z,26.2168,-96.4998,2.0,339.0768491,14.42093617,-99999.0,'11111222,11111222,99999999' 
TABS,ioos:station:wmo:42045:1,2006-08-03T21:00:00Z,26.2168,-96.4998,2.0,329.2849881,17.79657551,-99999.0,'11111222,11111222,99999999' 
TABS,ioos:station:wmo:42045:1,2006-08-03T21:30:00Z,26.2168,-96.4998,2.0,325.3460897,16.8125697,-99999.0,'11111222,11111222,99999999' 
TABS,ioos:station:wmo:42045:1,2006-08-03T22:00:00Z,26.2168,-96.4998,2.0,326.6164307,18.68256942,-99999.0,'11111222,11111222,99999999' 
TABS,ioos:station:wmo:42045:1,2006-08-03T22:30:00Z,26.2168,-96.4998,2.0,324.045524,17.40622015,-99999.0,'11111222,11111222,99999999' 
TABS,ioos:station:wmo:42045:1,2006-08-03T23:00:00Z,26.2168,-96.4998,2.0,327.7618475,18.50241606,-99999.0,'11111222,11111222,99999999' 
TABS,ioos:station:wmo:42045:1,2006-08-03T23:30:00Z,26.2168,-96.4998,2.0,319.7945365,16.49795442,-99999.0,'11111222,11111222,99999999' 
TABS,ioos:station:wmo:42045:1,2006-08-04T00:00:00Z,26.2168,-96.4998,2.0,311.5639941,14.98224616,-99999.0,'11111222,11111222,99999999' 
TABS,ioos:station:wmo:42045:1,2006-08-04T00:30:00Z,26.2168,-96.4998,2.0,309.8148717,16.35159014,-99999.0,'11111222,11111222,99999999' 
TABS,ioos:station:wmo:42045:1,2006-08-04T01:00:00Z,26.2168,-96.4998,2.0,306.8590918,20.57200039,-99999.0,'11111222,11111222,99999999' 
TABS,ioos:station:wmo:42045:1,2006-08-04T01:30:00Z,26.2168,-96.4998,2.0,301.558737,18.34276152,-99999.0,'11111222,11111222,99999999' 
TABS,ioos:station:wmo:42045:1,2006-08-04T02:00:00Z,26.2168,-96.4998,2.0,303.6904097,17.66720125,-99999.0,'11111222,11111222,99999999' 
TABS,ioos:station:wmo:42045:1,2006-08-04T02:30:00Z,26.2168,-96.4998,2.0,301.2787714,19.04863512,-99999.0,'11111222,11111222,99999999' 
TABS,ioos:station:wmo:42045:1,2006-08-04T03:00:00Z,26.2168,-96.4998,2.0,300.8181912,20.20259884,-99999.0,'11111222,11111222,99999999' 
TABS,ioos:station:wmo:42045:1,2006-08-04T03:30:00Z,26.2168,-96.4998,2.0,304.2241112,21.14054162,-99999.0,'11111222,11111222,99999999' 
TABS,ioos:station:wmo:42045:1,2006-08-04T04:00:00Z,26.2168,-96.4998,2.0,309.6522058,22.91100172,-99999.0,'11111222,11111222,99999999' 
TABS,ioos:station:wmo:42045:1,2006-08-04T04:30:00Z,26.2168,-96.4998,2.0,311.8610251,18.85147209,-99999.0,'11111222,11111222,99999999' 
TABS,ioos:station:wmo:42045:1,2006-08-04T05:00:00Z,26.2168,-96.4998,2.0,311.7139254,19.61203967,-99999.0,'11111222,11111222,99999999' 
TABS,ioos:station:wmo:42045:1,2006-08-04T05:30:00Z,26.2168,-96.4998,2.0,309.9015446,19.17482986,-99999.0,'11111222,11111222,99999999' 
TABS,ioos:station:wmo:42045:1,2006-08-04T06:00:00Z,26.2168,-96.4998,2.0,313.6849698,17.86622512,-99999.0,'11111222,11111222,99999999' 
TABS,ioos:station:wmo:42045:1,2006-08-04T06:30:00Z,26.2168,-96.4998,2.0,317.7694374,18.00274701,-99999.0,'11111222,11111222,99999999' 
TABS,ioos:station:wmo:42045:1,2006-08-04T07:00:00Z,26.2168,-96.4998,2.0,315.659776,20.27409431,-99999.0,'11111222,11111222,99999999' 
TABS,ioos:station:wmo:42045:1,2006-08-04T07:30:00Z,26.2168,-96.4998,2.0,320.6538543,18.37516258,-99999.0,'11111222,11111222,99999999' 
TABS,ioos:station:wmo:42045:1,2006-08-04T08:00:00Z,26.2168,-96.4998,2.0,324.7439342,16.33647759,-99999.0,'11111222,11111222,99999999' 
TABS,ioos:station:wmo:42045:1,2006-08-04T08:30:00Z,26.2168,-96.4998,2.0,324.0652426,16.42618641,-99999.0,'11111222,11111222,99999999' 
TABS,ioos:station:wmo:42045:1,2006-08-04T09:00:00Z,26.2168,-96.4998,2.0,337.6110663,13.75703456,-99999.0,'11111222,11111222,99999999' 
TABS,ioos:station:wmo:42045:1,2006-08-04T09:30:00Z,26.2168,-96.4998,2.0,345.199222,14.71837287,-99999.0,'11111222,11111222,99999999' 
TABS,ioos:station:wmo:42045:1,2006-08-04T10:00:00Z,26.2168,-96.4998,2.0,337.7146749,11.20711381,-99999.0,'11111222,11111222,99999999' 
TABS,ioos:station:wmo:42045:1,2006-08-04T10:30:00Z,26.2168,-96.4998,2.0,337.4825011,13.81309886,-99999.0,'11111222,11111222,99999999' 
TABS,ioos:station:wmo:42045:1,2006-08-04T11:00:00Z,26.2168,-96.4998,2.0,342.8620553,7.126436697,-99999.0,'11133222,11111222,99999999' 
TABS,ioos:station:wmo:42045:1,2006-08-04T11:30:00Z,26.2168,-96.4998,2.0,349.5244206,11.98984987,-99999.0,'11111222,11111222,99999999' 
TABS,ioos:station:wmo:42045:1,2006-08-04T12:00:00Z,26.2168,-96.4998,2.0,357.6304403,14.75261672,-99999.0,'11111222,11111222,99999999' 
TABS,ioos:station:wmo:42045:1,2006-08-04T12:30:00Z,26.2168,-96.4998,2.0,7.350250802,15.78974351,-99999.0,'11111222,11111222,99999999' 
TABS,ioos:station:wmo:42045:1,2006-08-04T13:00:00Z,26.2168,-96.4998,2.0,12.02546195,15.5512604,-99999.0,'11111222,11111222,99999999' 
TABS,ioos:station:wmo:42045:1,2006-08-04T13:30:00Z,26.2168,-96.4998,2.0,23.98042051,13.08984339,-99999.0,'11111222,11111222,99999999' 
TABS,ioos:station:wmo:42045:1,2006-08-04T14:00:00Z,26.2168,-96.4998,2.0,28.23301102,14.29005598,-99999.0,'11111222,11111222,99999999' 
TABS,ioos:station:wmo:42045:1,2006-08-04T14:30:00Z,26.2168,-96.4998,2.0,34.43041184,13.95464797,-99999.0,'11111222,11111222,99999999' 
TABS,ioos:station:wmo:42045:1,2006-08-04T15:00:00Z,26.2168,-96.4998,2.0,36.98669187,10.8040224,-99999.0,'11111222,11111222,99999999' 
TABS,ioos:station:wmo:42045:1,2006-08-04T15:30:00Z,26.2168,-96.4998,2.0,57.4972417,11.11025652,-99999.0,'11111222,11111222,99999999' 
TABS,ioos:station:wmo:42045:1,2006-08-04T16:00:00Z,26.2168,-96.4998,2.0,76.16739118,15.01547535,-99999.0,'11111222,11111222,99999999' 
TABS,ioos:station:wmo:42045:1,2006-08-04T16:30:00Z,26.2168,-96.4998,2.0,84.8661281,15.42186759,-99999.0,'11111222,11111222,99999999' 
TABS,ioos:station:wmo:42045:1,2006-08-04T17:00:00Z,26.2168,-96.4998,2.0,87.10013664,16.80151481,-99999.0,'11111222,11111222,99999999' 